Time,TemperatureF,DewpointF,PressureIn,WindDirection,WindDirectionDegrees,WindSpeedMPH,WindSpeedGustMPH,Humidity,HourlyPrecipIn,Conditions,Clouds,dailyrainin,SoftwareType,DateUTC
2014-07-22 00:00:00,75.3,59.0,29.95,SSW,212,0.0,0.0,57,0.00,,,0.02,Wunderground v.1.15,2014-07-22 07:00:00,
2014-07-22 00:05:00,75.1,59.3,29.95,SSW,212,1.0,1.0,58,0.00,,,0.00,Wunderground v.1.15,2014-07-22 07:05:00,
2014-07-22 00:15:00,75.2,59.4,29.95,SSW,212,3.0,3.0,58,0.00,,,0.00,Wunderground v.1.15,2014-07-22 07:15:00,
2014-07-22 00:20:00,75.2,59.4,29.95,SSW,206,3.0,8.0,58,0.00,,,0.00,Wunderground v.1.15,2014-07-22 07:20:00,
2014-07-22 00:25:00,75.2,59.4,29.95,SSW,206,2.0,8.0,58,0.00,,,0.00,Wunderground v.1.15,2014-07-22 07:25:00,
2014-07-22 00:35:00,74.8,59.5,29.96,SSW,206,1.0,1.0,59,0.00,,,0.00,Wunderground v.1.15,2014-07-22 07:35:00,
2014-07-22 00:40:00,74.6,59.8,29.95,SSW,206,3.0,3.0,60,0.00,,,0.00,Wunderground v.1.15,2014-07-22 07:40:00,
2014-07-22 00:45:00,74.3,60.0,29.95,SSW,206,2.0,5.0,61,0.00,,,0.00,Wunderground v.1.15,2014-07-22 07:45:00,
2014-07-22 00:50:00,74.1,59.8,29.95,SSW,202,3.0,3.0,61,0.00,,,0.00,Wunderground v.1.15,2014-07-22 07:50:00,
2014-07-22 00:55:00,74.1,59.8,29.95,SSW,201,3.0,4.0,61,0.00,,,0.00,Wunderground v.1.15,2014-07-22 07:55:00,
2014-07-22 01:00:00,74.0,59.7,29.95,SSW,201,3.0,3.0,61,0.00,,,0.00,Wunderground v.1.15,2014-07-22 08:00:00,
2014-07-22 01:05:00,73.9,59.6,29.95,South,186,3.0,5.0,61,0.00,,,0.00,Wunderground v.1.15,2014-07-22 08:05:00,
2014-07-22 01:10:00,73.7,59.9,29.95,South,186,3.0,4.0,62,0.00,,,0.00,Wunderground v.1.15,2014-07-22 08:10:00,
2014-07-22 01:20:00,73.3,59.5,29.95,South,186,2.0,2.0,62,0.00,,,0.00,Wunderground v.1.15,2014-07-22 08:20:00,
2014-07-22 01:25:00,73.1,59.8,29.95,South,186,2.0,2.0,63,0.00,,,0.00,Wunderground v.1.15,2014-07-22 08:25:00,
2014-07-22 01:30:00,72.9,59.6,29.95,South,186,1.0,2.0,63,0.00,,,0.00,Wunderground v.1.15,2014-07-22 08:30:00,
2014-07-22 01:40:00,72.6,59.7,29.95,South,186,0.0,0.0,64,0.00,,,0.00,Wunderground v.1.15,2014-07-22 08:40:00,
2014-07-22 01:45:00,72.4,59.5,29.95,South,186,0.0,0.0,64,0.00,,,0.00,Wunderground v.1.15,2014-07-22 08:45:00,
2014-07-22 01:55:00,72.0,59.6,29.95,South,186,0.0,0.0,65,0.00,,,0.00,Wunderground v.1.15,2014-07-22 08:55:00,
2014-07-22 02:00:00,71.8,59.8,29.95,South,186,0.0,0.0,66,0.00,,,0.00,Wunderground v.1.15,2014-07-22 09:00:00,
2014-07-22 02:05:00,71.6,59.6,29.95,South,186,0.0,0.0,66,0.00,,,0.00,Wunderground v.1.15,2014-07-22 09:05:00,
2014-07-22 02:10:00,71.4,59.4,29.95,South,186,0.0,0.0,66,0.00,,,0.00,Wunderground v.1.15,2014-07-22 09:10:00,
2014-07-22 02:15:00,71.3,59.8,29.95,South,186,0.0,0.0,67,0.00,,,0.00,Wunderground v.1.15,2014-07-22 09:15:00,
2014-07-22 02:25:00,70.7,59.6,29.96,South,186,0.0,0.0,68,0.00,,,0.00,Wunderground v.1.15,2014-07-22 09:25:00,
2014-07-22 02:30:00,70.4,59.7,29.96,South,186,0.0,0.0,69,0.00,,,0.00,Wunderground v.1.15,2014-07-22 09:30:00,
2014-07-22 02:35:00,70.2,60.0,29.96,South,186,0.0,0.0,70,0.00,,,0.00,Wunderground v.1.15,2014-07-22 09:35:00,
2014-07-22 02:45:00,69.7,59.9,29.96,South,186,0.0,0.0,71,0.00,,,0.00,Wunderground v.1.15,2014-07-22 09:45:00,
2014-07-22 02:50:00,69.5,59.7,29.96,South,186,0.0,0.0,71,0.00,,,0.00,Wunderground v.1.15,2014-07-22 09:50:00,
2014-07-22 02:55:00,69.2,59.8,29.96,South,186,0.0,0.0,72,0.00,,,0.00,Wunderground v.1.15,2014-07-22 09:55:00,
2014-07-22 03:00:00,69.0,59.6,29.96,South,186,0.0,0.0,72,0.00,,,0.00,Wunderground v.1.15,2014-07-22 10:00:00,
2014-07-22 03:05:00,68.9,59.9,29.96,South,186,0.0,0.0,73,0.00,,,0.00,Wunderground v.1.15,2014-07-22 10:05:00,
2014-07-22 03:10:00,68.8,59.8,29.96,South,186,0.0,0.0,73,0.00,,,0.00,Wunderground v.1.15,2014-07-22 10:10:00,
2014-07-22 03:15:00,68.6,60.0,29.96,South,186,0.0,0.0,74,0.00,,,0.00,Wunderground v.1.15,2014-07-22 10:15:00,
2014-07-22 03:20:00,68.5,59.9,29.96,South,186,0.0,0.0,74,0.00,,,0.00,Wunderground v.1.15,2014-07-22 10:20:00,
2014-07-22 03:25:00,68.1,59.9,29.96,South,186,0.0,0.0,75,0.00,,,0.00,Wunderground v.1.15,2014-07-22 10:25:00,
2014-07-22 03:30:00,67.6,59.8,29.96,South,186,0.0,0.0,76,0.00,,,0.00,Wunderground v.1.15,2014-07-22 10:30:00,
2014-07-22 03:35:00,67.3,59.5,29.97,South,186,0.0,0.0,76,0.00,,,0.00,Wunderground v.1.15,2014-07-22 10:35:00,
2014-07-22 03:40:00,67.0,59.5,29.97,South,186,0.0,0.0,77,0.00,,,0.00,Wunderground v.1.15,2014-07-22 10:40:00,
2014-07-22 03:45:00,66.7,59.6,29.97,South,186,0.0,0.0,78,0.00,,,0.00,Wunderground v.1.15,2014-07-22 10:45:00,
2014-07-22 03:50:00,66.4,59.7,29.97,South,186,0.0,0.0,79,0.00,,,0.00,Wunderground v.1.15,2014-07-22 10:50:00,
2014-07-22 03:55:00,66.1,59.4,29.97,South,186,0.0,0.0,79,0.00,,,0.00,Wunderground v.1.15,2014-07-22 10:55:00,
2014-07-22 04:00:00,65.9,59.2,29.97,South,186,0.0,0.0,79,0.00,,,0.00,Wunderground v.1.15,2014-07-22 11:00:00,
2014-07-22 04:05:00,65.7,59.4,29.97,South,186,0.0,0.0,80,0.00,,,0.00,Wunderground v.1.15,2014-07-22 11:05:00,
2014-07-22 04:10:00,65.6,59.6,29.97,South,186,0.0,0.0,81,0.00,,,0.00,Wunderground v.1.15,2014-07-22 11:10:00,
2014-07-22 04:15:00,65.7,59.7,29.97,South,186,0.0,0.0,81,0.00,,,0.00,Wunderground v.1.15,2014-07-22 11:15:00,
2014-07-22 04:20:00,65.7,59.4,29.97,South,186,0.0,0.0,80,0.00,,,0.00,Wunderground v.1.15,2014-07-22 11:20:00,
2014-07-22 04:30:00,65.5,58.8,29.96,South,186,0.0,0.0,79,0.00,,,0.00,Wunderground v.1.15,2014-07-22 11:30:00,
2014-07-22 04:35:00,64.9,58.6,29.96,South,186,0.0,0.0,80,0.00,,,0.00,Wunderground v.1.15,2014-07-22 11:35:00,
2014-07-22 04:45:00,64.0,58.4,29.97,South,186,0.0,0.0,82,0.00,,,0.00,Wunderground v.1.15,2014-07-22 11:45:00,
2014-07-22 04:50:00,63.7,58.1,29.97,South,186,0.0,0.0,82,0.00,,,0.00,Wunderground v.1.15,2014-07-22 11:50:00,
2014-07-22 04:55:00,63.5,58.2,29.96,South,186,0.0,0.0,83,0.00,,,0.00,Wunderground v.1.15,2014-07-22 11:55:00,
2014-07-22 05:00:00,63.4,58.1,29.96,South,186,0.0,0.0,83,0.00,,,0.00,Wunderground v.1.15,2014-07-22 12:00:00,
2014-07-22 05:05:00,63.3,58.0,29.96,South,186,0.0,0.0,83,0.00,,,0.00,Wunderground v.1.15,2014-07-22 12:05:00,
2014-07-22 05:10:00,63.2,58.3,29.96,South,186,0.0,0.0,84,0.00,,,0.00,Wunderground v.1.15,2014-07-22 12:10:00,
2014-07-22 05:15:00,63.1,58.2,29.96,South,186,0.0,0.0,84,0.00,,,0.00,Wunderground v.1.15,2014-07-22 12:15:00,
2014-07-22 05:25:00,63.0,57.8,29.96,South,186,0.0,0.0,83,0.00,,,0.00,Wunderground v.1.15,2014-07-22 12:25:00,
2014-07-22 05:30:00,63.1,57.9,29.96,South,186,0.0,0.0,83,0.00,,,0.00,Wunderground v.1.15,2014-07-22 12:30:00,
2014-07-22 05:35:00,63.2,57.9,29.97,South,186,0.0,0.0,83,0.00,,,0.00,Wunderground v.1.15,2014-07-22 12:35:00,
2014-07-22 05:40:00,63.0,57.8,29.97,South,186,0.0,0.0,83,0.00,,,0.00,Wunderground v.1.15,2014-07-22 12:40:00,
2014-07-22 05:45:00,62.8,57.6,29.97,South,186,0.0,0.0,83,0.00,,,0.00,Wunderground v.1.15,2014-07-22 12:45:00,
2014-07-22 05:50:00,62.8,57.9,29.97,South,186,0.0,0.0,84,0.00,,,0.00,Wunderground v.1.15,2014-07-22 12:50:00,
2014-07-22 06:00:00,63.4,58.5,29.97,South,186,0.0,0.0,84,0.00,,,0.00,Wunderground v.1.15,2014-07-22 13:00:00,
2014-07-22 06:05:00,63.7,58.8,29.98,South,186,0.0,0.0,84,0.00,,,0.00,Wunderground v.1.15,2014-07-22 13:05:00,
2014-07-22 06:15:00,63.9,58.6,29.98,South,186,0.0,0.0,83,0.00,,,0.00,Wunderground v.1.15,2014-07-22 13:15:00,
2014-07-22 06:20:00,63.9,58.6,29.98,South,186,0.0,0.0,83,0.00,,,0.00,Wunderground v.1.15,2014-07-22 13:20:00,
2014-07-22 06:25:00,64.0,58.7,29.98,South,186,0.0,0.0,83,0.00,,,0.00,Wunderground v.1.15,2014-07-22 13:25:00,
2014-07-22 06:30:00,64.1,58.8,29.99,South,186,0.0,0.0,83,0.00,,,0.00,Wunderground v.1.15,2014-07-22 13:30:00,
2014-07-22 06:40:00,64.6,59.0,29.99,South,186,0.0,0.0,82,0.00,,,0.00,Wunderground v.1.15,2014-07-22 13:40:00,
2014-07-22 06:45:00,64.9,58.9,30.00,South,186,0.0,0.0,81,0.00,,,0.00,Wunderground v.1.15,2014-07-22 13:45:00,
2014-07-22 06:50:00,65.3,59.3,30.00,South,186,0.0,0.0,81,0.00,,,0.00,Wunderground v.1.15,2014-07-22 13:50:00,
2014-07-22 06:55:00,65.8,59.5,30.00,South,186,0.0,0.0,80,0.00,,,0.00,Wunderground v.1.15,2014-07-22 13:55:00,
2014-07-22 07:00:00,66.3,59.6,30.00,South,186,2.0,2.0,79,0.00,,,0.00,Wunderground v.1.15,2014-07-22 14:00:00,
2014-07-22 07:05:00,66.5,59.4,30.00,South,186,2.0,2.0,78,0.00,,,0.00,Wunderground v.1.15,2014-07-22 14:05:00,
2014-07-22 07:10:00,66.7,59.6,30.00,South,186,0.0,0.0,78,0.00,,,0.00,Wunderground v.1.15,2014-07-22 14:10:00,
2014-07-22 07:15:00,66.8,59.4,29.99,South,186,0.0,0.0,77,0.00,,,0.00,Wunderground v.1.15,2014-07-22 14:15:00,
2014-07-22 07:20:00,66.8,59.4,29.99,South,186,0.0,0.0,77,0.00,,,0.00,Wunderground v.1.15,2014-07-22 14:20:00,
2014-07-22 07:25:00,67.0,59.2,30.00,South,186,0.0,0.0,76,0.00,,,0.00,Wunderground v.1.15,2014-07-22 14:25:00,
2014-07-22 07:30:00,67.1,59.3,30.00,South,186,0.0,0.0,76,0.00,,,0.00,Wunderground v.1.15,2014-07-22 14:30:00,
2014-07-22 07:35:00,67.3,59.5,30.00,South,186,0.0,0.0,76,0.00,,,0.00,Wunderground v.1.15,2014-07-22 14:35:00,
2014-07-22 07:40:00,67.4,59.6,30.00,South,186,1.0,1.0,76,0.00,,,0.00,Wunderground v.1.15,2014-07-22 14:40:00,
2014-07-22 07:45:00,67.4,59.9,30.00,South,186,1.0,1.0,77,0.00,,,0.00,Wunderground v.1.15,2014-07-22 14:45:00,
2014-07-22 07:50:00,67.4,59.6,30.00,South,186,1.0,1.0,76,0.00,,,0.00,Wunderground v.1.15,2014-07-22 14:50:00,
2014-07-22 07:55:00,67.4,59.6,30.01,South,186,2.0,2.0,76,0.00,,,0.00,Wunderground v.1.15,2014-07-22 14:55:00,
2014-07-22 08:00:00,67.4,59.6,30.01,South,186,2.0,2.0,76,0.00,,,0.00,Wunderground v.1.15,2014-07-22 15:00:00,
2014-07-22 08:05:00,67.5,59.7,30.00,South,186,2.0,2.0,76,0.00,,,0.00,Wunderground v.1.15,2014-07-22 15:05:00,
2014-07-22 08:10:00,67.6,59.8,29.99,South,186,1.0,1.0,76,0.00,,,0.00,Wunderground v.1.15,2014-07-22 15:10:00,
2014-07-22 08:15:00,67.7,59.5,30.00,South,186,0.0,1.0,75,0.00,,,0.00,Wunderground v.1.15,2014-07-22 15:15:00,
2014-07-22 08:20:00,67.7,59.9,30.01,South,186,0.0,0.0,76,0.00,,,0.00,Wunderground v.1.15,2014-07-22 15:20:00,
2014-07-22 08:25:00,67.8,60.3,30.00,South,186,0.0,0.0,77,0.00,,,0.00,Wunderground v.1.15,2014-07-22 15:25:00,
2014-07-22 08:30:00,68.0,60.5,30.01,South,186,0.0,0.0,77,0.00,,,0.00,Wunderground v.1.15,2014-07-22 15:30:00,
2014-07-22 08:35:00,68.6,60.7,30.01,South,186,0.0,0.0,76,0.00,,,0.00,Wunderground v.1.15,2014-07-22 15:35:00,
2014-07-22 08:40:00,69.0,60.7,30.01,South,186,0.0,0.0,75,0.00,,,0.00,Wunderground v.1.15,2014-07-22 15:40:00,
2014-07-22 08:45:00,69.5,60.8,30.01,South,186,1.0,1.0,74,0.00,,,0.00,Wunderground v.1.15,2014-07-22 15:45:00,
2014-07-22 08:50:00,69.9,61.6,30.02,South,186,1.0,1.0,75,0.00,,,0.00,Wunderground v.1.15,2014-07-22 15:50:00,
2014-07-22 08:55:00,70.2,61.1,30.02,South,186,0.0,1.0,73,0.00,,,0.00,Wunderground v.1.15,2014-07-22 15:55:00,
2014-07-22 09:00:00,70.6,61.5,30.03,South,186,0.0,0.0,73,0.00,,,0.00,Wunderground v.1.15,2014-07-22 16:00:00,
2014-07-22 09:05:00,71.2,62.1,30.03,South,186,0.0,4.0,73,0.00,,,0.00,Wunderground v.1.15,2014-07-22 16:05:00,
2014-07-22 09:10:00,71.6,62.1,30.03,South,186,1.0,1.0,72,0.00,,,0.00,Wunderground v.1.15,2014-07-22 16:10:00,
2014-07-22 09:15:00,72.0,61.7,30.02,South,186,1.0,1.0,70,0.00,,,0.00,Wunderground v.1.15,2014-07-22 16:15:00,
2014-07-22 09:25:00,71.7,61.4,30.02,South,186,1.0,1.0,70,0.00,,,0.00,Wunderground v.1.15,2014-07-22 16:25:00,
2014-07-22 09:30:00,71.7,62.2,30.01,South,186,2.0,2.0,72,0.00,,,0.00,Wunderground v.1.15,2014-07-22 16:30:00,
2014-07-22 09:35:00,71.7,61.4,30.01,South,186,2.0,2.0,70,0.00,,,0.00,Wunderground v.1.15,2014-07-22 16:35:00,
2014-07-22 09:45:00,72.4,62.1,30.01,South,186,2.0,5.0,70,0.00,,,0.00,Wunderground v.1.15,2014-07-22 16:45:00,
2014-07-22 09:55:00,73.9,61.8,30.02,South,186,5.0,5.0,66,0.00,,,0.00,Wunderground v.1.15,2014-07-22 16:55:00,
2014-07-22 10:05:00,74.0,62.8,30.03,South,186,1.0,3.0,68,0.00,,,0.00,Wunderground v.1.15,2014-07-22 17:05:00,
2014-07-22 10:10:00,74.4,62.7,30.02,South,186,0.0,0.0,67,0.00,,,0.00,Wunderground v.1.15,2014-07-22 17:10:00,
2014-07-22 10:15:00,75.1,63.0,30.02,South,186,0.0,0.0,66,0.00,,,0.00,Wunderground v.1.15,2014-07-22 17:15:00,
2014-07-22 10:20:00,75.0,62.9,30.01,South,186,1.0,7.0,66,0.00,,,0.00,Wunderground v.1.15,2014-07-22 17:20:00,
2014-07-22 10:25:00,74.9,63.6,30.01,South,186,2.0,7.0,68,0.00,,,0.00,Wunderground v.1.15,2014-07-22 17:25:00,
2014-07-22 10:35:00,76.1,62.1,30.00,South,186,0.0,6.0,62,0.00,,,0.00,Wunderground v.1.15,2014-07-22 17:35:00,
2014-07-22 10:40:00,75.9,62.4,30.01,South,186,2.0,2.0,63,0.00,,,0.00,Wunderground v.1.15,2014-07-22 17:40:00,
2014-07-22 10:45:00,76.1,63.0,30.01,South,186,3.0,3.0,64,0.00,,,0.00,Wunderground v.1.15,2014-07-22 17:45:00,
2014-07-22 10:50:00,76.4,62.0,30.01,South,186,2.0,3.0,61,0.00,,,0.00,Wunderground v.1.15,2014-07-22 17:50:00,
2014-07-22 10:55:00,76.4,62.4,30.00,South,186,1.0,3.0,62,0.00,,,0.00,Wunderground v.1.15,2014-07-22 17:55:00,
2014-07-22 11:00:00,76.2,62.7,30.01,South,186,3.0,3.0,63,0.00,,,0.00,Wunderground v.1.15,2014-07-22 18:00:00,
2014-07-22 11:05:00,76.6,63.5,30.00,South,186,2.0,3.0,64,0.00,,,0.00,Wunderground v.1.15,2014-07-22 18:05:00,
2014-07-22 11:10:00,76.7,63.6,30.00,South,186,1.0,1.0,64,0.00,,,0.00,Wunderground v.1.15,2014-07-22 18:10:00,
2014-07-22 11:15:00,76.8,61.9,30.00,South,186,2.0,4.0,60,0.00,,,0.00,Wunderground v.1.15,2014-07-22 18:15:00,
2014-07-22 11:20:00,76.6,61.2,30.00,South,186,3.0,3.0,59,0.00,,,0.00,Wunderground v.1.15,2014-07-22 18:20:00,
2014-07-22 11:25:00,76.7,62.2,30.00,South,186,2.0,3.0,61,0.00,,,0.00,Wunderground v.1.15,2014-07-22 18:25:00,
2014-07-22 11:30:00,76.9,61.5,30.00,South,186,1.0,4.0,59,0.00,,,0.00,Wunderground v.1.15,2014-07-22 18:30:00,
2014-07-22 11:35:00,77.6,61.2,30.00,South,186,2.0,10.0,57,0.00,,,0.00,Wunderground v.1.15,2014-07-22 18:35:00,
2014-07-22 11:40:00,78.0,63.0,30.00,South,186,3.0,3.0,60,0.00,,,0.00,Wunderground v.1.15,2014-07-22 18:40:00,
2014-07-22 11:45:00,78.5,63.0,30.00,South,186,2.0,3.0,59,0.00,,,0.00,Wunderground v.1.15,2014-07-22 18:45:00,
2014-07-22 11:50:00,78.9,61.9,30.00,South,186,1.0,4.0,56,0.00,,,0.00,Wunderground v.1.15,2014-07-22 18:50:00,
2014-07-22 11:55:00,78.8,62.3,30.00,South,186,2.0,9.0,57,0.00,,,0.00,Wunderground v.1.15,2014-07-22 18:55:00,
2014-07-22 12:00:00,78.8,63.7,30.00,South,186,2.0,2.0,60,0.00,,,0.00,Wunderground v.1.15,2014-07-22 19:00:00,
2014-07-22 12:05:00,78.3,61.8,30.00,South,186,3.0,6.0,57,0.00,,,0.00,Wunderground v.1.15,2014-07-22 19:05:00,
2014-07-22 12:10:00,78.8,63.7,30.00,South,186,4.0,4.0,60,0.00,,,0.00,Wunderground v.1.15,2014-07-22 19:10:00,
2014-07-22 12:20:00,79.1,63.5,30.00,South,186,3.0,9.0,59,0.00,,,0.00,Wunderground v.1.15,2014-07-22 19:20:00,
2014-07-22 12:25:00,78.7,62.2,30.00,South,177,5.0,11.0,57,0.00,,,0.00,Wunderground v.1.15,2014-07-22 19:25:00,
2014-07-22 12:30:00,78.9,63.4,30.00,South,175,6.0,10.0,59,0.00,,,0.00,Wunderground v.1.15,2014-07-22 19:30:00,
2014-07-22 12:35:00,78.4,63.4,30.00,South,169,7.0,10.0,60,0.00,,,0.00,Wunderground v.1.15,2014-07-22 19:35:00,
2014-07-22 12:45:00,77.0,63.0,30.00,South,169,6.0,7.0,62,0.00,,,0.00,Wunderground v.1.15,2014-07-22 19:45:00,
2014-07-22 12:50:00,76.8,61.9,29.99,South,169,5.0,7.0,60,0.00,,,0.00,Wunderground v.1.15,2014-07-22 19:50:00,
2014-07-22 12:55:00,76.2,61.3,29.99,South,169,5.0,7.0,60,0.00,,,0.00,Wunderground v.1.15,2014-07-22 19:55:00,
2014-07-22 13:00:00,76.0,61.1,29.99,South,169,6.0,9.0,60,0.00,,,0.00,Wunderground v.1.15,2014-07-22 20:00:00,
2014-07-22 13:05:00,76.1,62.6,29.99,South,169,3.0,9.0,63,0.00,,,0.00,Wunderground v.1.15,2014-07-22 20:05:00,
2014-07-22 13:10:00,76.2,60.8,29.99,South,169,2.0,9.0,59,0.00,,,0.00,Wunderground v.1.15,2014-07-22 20:10:00,
2014-07-22 13:15:00,76.3,60.9,29.99,South,169,4.0,9.0,59,0.00,,,0.00,Wunderground v.1.15,2014-07-22 20:15:00,
2014-07-22 13:20:00,76.6,60.2,29.99,South,169,6.0,10.0,57,0.00,,,0.00,Wunderground v.1.15,2014-07-22 20:20:00,
2014-07-22 13:30:00,75.6,60.3,30.00,South,169,6.0,6.0,59,0.00,,,0.00,Wunderground v.1.15,2014-07-22 20:30:00,
2014-07-22 13:35:00,75.5,60.6,30.00,South,169,4.0,6.0,60,0.00,,,0.00,Wunderground v.1.15,2014-07-22 20:35:00,
2014-07-22 13:40:00,75.5,62.0,30.00,South,169,3.0,7.0,63,0.00,,,0.00,Wunderground v.1.15,2014-07-22 20:40:00,
2014-07-22 13:45:00,75.2,61.7,30.00,South,169,4.0,7.0,63,0.00,,,0.00,Wunderground v.1.15,2014-07-22 20:45:00,
2014-07-22 13:50:00,74.7,61.7,29.99,South,169,5.0,5.0,64,0.00,,,0.00,Wunderground v.1.15,2014-07-22 20:50:00,
2014-07-22 13:55:00,74.8,61.8,29.99,South,169,3.0,6.0,64,0.00,,,0.00,Wunderground v.1.15,2014-07-22 20:55:00,
2014-07-22 14:00:00,75.0,62.4,29.99,South,169,3.0,6.0,65,0.00,,,0.00,Wunderground v.1.15,2014-07-22 21:00:00,
2014-07-22 14:05:00,75.4,61.5,29.99,South,169,6.0,9.0,62,0.00,,,0.00,Wunderground v.1.15,2014-07-22 21:05:00,
2014-07-22 14:10:00,75.6,61.7,29.99,South,169,7.0,7.0,62,0.00,,,0.00,Wunderground v.1.15,2014-07-22 21:10:00,
2014-07-22 14:15:00,75.7,61.3,29.99,South,169,8.0,8.0,61,0.00,,,0.00,Wunderground v.1.15,2014-07-22 21:15:00,
2014-07-22 14:20:00,75.9,61.5,29.99,South,169,7.0,7.0,61,0.00,,,0.00,Wunderground v.1.15,2014-07-22 21:20:00,
2014-07-22 14:25:00,76.5,62.0,29.99,South,169,4.0,7.0,61,0.00,,,0.00,Wunderground v.1.15,2014-07-22 21:25:00,
2014-07-22 14:30:00,76.5,61.6,29.99,South,169,5.0,5.0,60,0.00,,,0.00,Wunderground v.1.15,2014-07-22 21:30:00,
2014-07-22 14:35:00,77.1,61.2,29.99,South,169,4.0,6.0,58,0.00,,,0.00,Wunderground v.1.15,2014-07-22 21:35:00,
2014-07-22 14:40:00,77.6,61.2,29.98,South,169,5.0,7.0,57,0.00,,,0.00,Wunderground v.1.15,2014-07-22 21:40:00,
2014-07-22 14:45:00,78.2,61.2,29.98,South,169,5.0,10.0,56,0.00,,,0.00,Wunderground v.1.15,2014-07-22 21:45:00,
2014-07-22 14:50:00,78.8,62.3,29.98,South,169,4.0,6.0,57,0.00,,,0.00,Wunderground v.1.15,2014-07-22 21:50:00,
2014-07-22 15:00:00,80.3,60.5,29.97,South,169,6.0,6.0,51,0.00,,,0.00,Wunderground v.1.15,2014-07-22 22:00:00,
2014-07-22 15:05:00,80.8,59.9,29.97,South,169,6.0,6.0,49,0.00,,,0.00,Wunderground v.1.15,2014-07-22 22:05:00,
2014-07-22 15:10:00,81.5,59.3,29.96,South,169,5.0,5.0,47,0.00,,,0.00,Wunderground v.1.15,2014-07-22 22:10:00,
2014-07-22 15:15:00,82.3,59.4,29.96,South,169,5.0,5.0,46,0.00,,,0.00,Wunderground v.1.15,2014-07-22 22:15:00,
2014-07-22 15:20:00,82.5,60.2,29.96,SSE,164,5.0,10.0,47,0.00,,,0.00,Wunderground v.1.15,2014-07-22 22:20:00,
2014-07-22 15:25:00,82.9,60.0,29.96,SSE,164,6.0,10.0,46,0.00,,,0.00,Wunderground v.1.15,2014-07-22 22:25:00,
2014-07-22 15:30:00,83.2,59.6,29.96,SSE,164,6.0,6.0,45,0.00,,,0.00,Wunderground v.1.15,2014-07-22 22:30:00,
2014-07-22 15:40:00,84.3,60.6,29.95,SSE,159,8.0,8.0,45,0.00,,,0.00,Wunderground v.1.15,2014-07-22 22:40:00,
2014-07-22 15:45:00,85.0,60.6,29.94,SSE,157,7.0,8.0,44,0.00,,,0.00,Wunderground v.1.15,2014-07-22 22:45:00,
2014-07-22 15:50:00,85.2,61.5,29.94,SSE,157,5.0,5.0,45,0.00,,,0.00,Wunderground v.1.15,2014-07-22 22:50:00,
2014-07-22 16:00:00,86.3,60.5,29.93,SSE,154,7.0,7.0,42,0.00,,,0.00,Wunderground v.1.15,2014-07-22 23:00:00,
2014-07-22 16:05:00,86.5,58.6,29.93,SSE,154,5.0,7.0,39,0.00,,,0.00,Wunderground v.1.15,2014-07-22 23:05:00,
2014-07-22 16:10:00,86.3,59.1,29.93,SSE,156,6.0,6.0,40,0.00,,,0.00,Wunderground v.1.15,2014-07-22 23:10:00,
2014-07-22 16:15:00,86.4,59.2,29.93,SSE,156,6.0,6.0,40,0.00,,,0.00,Wunderground v.1.15,2014-07-22 23:15:00,
2014-07-22 16:20:00,86.5,58.6,29.93,SSE,160,6.0,12.0,39,0.00,,,0.00,Wunderground v.1.15,2014-07-22 23:20:00,
2014-07-22 16:25:00,87.0,59.0,29.93,SSE,158,6.0,12.0,39,0.00,,,0.00,Wunderground v.1.15,2014-07-22 23:25:00,
2014-07-22 16:30:00,87.2,58.5,29.92,SSE,155,6.0,10.0,38,0.00,,,0.00,Wunderground v.1.15,2014-07-22 23:30:00,
2014-07-22 16:40:00,87.2,59.2,29.92,SSE,162,7.0,8.0,39,0.00,,,0.00,Wunderground v.1.15,2014-07-22 23:40:00,
2014-07-22 16:45:00,87.9,59.1,29.92,SSE,155,6.0,8.0,38,0.00,,,0.00,Wunderground v.1.15,2014-07-22 23:45:00,
2014-07-22 16:50:00,88.4,60.3,29.92,SSE,157,5.0,5.0,39,0.00,,,0.00,Wunderground v.1.15,2014-07-22 23:50:00,
2014-07-22 16:55:00,88.3,58.7,29.92,SSE,159,5.0,7.0,37,0.00,,,0.00,Wunderground v.1.15,2014-07-22 23:55:00,
2014-07-22 17:00:00,88.5,58.9,29.92,SSE,163,6.0,6.0,37,0.00,,,0.00,Wunderground v.1.15,2014-07-23 00:00:00,
2014-07-22 17:05:00,88.3,58.7,29.91,SSE,165,7.0,7.0,37,0.00,,,0.00,Wunderground v.1.15,2014-07-23 00:05:00,
2014-07-22 17:10:00,88.1,58.6,29.91,SSE,159,8.0,8.0,37,0.00,,,0.00,Wunderground v.1.15,2014-07-23 00:10:00,
2014-07-22 17:15:00,88.2,58.6,29.91,SSE,159,8.0,8.0,37,0.00,,,0.00,Wunderground v.1.15,2014-07-23 00:15:00,
2014-07-22 17:25:00,88.2,59.4,29.91,SSE,157,8.0,8.0,38,0.00,,,0.00,Wunderground v.1.15,2014-07-23 00:25:00,
2014-07-22 17:30:00,88.2,59.4,29.91,SSE,159,8.0,8.0,38,0.00,,,0.00,Wunderground v.1.15,2014-07-23 00:30:00,
2014-07-22 17:40:00,88.0,58.5,29.91,SSE,163,8.0,10.0,37,0.00,,,0.00,Wunderground v.1.15,2014-07-23 00:40:00,
2014-07-22 17:45:00,87.9,59.1,29.91,SSE,161,9.0,10.0,38,0.00,,,0.00,Wunderground v.1.15,2014-07-23 00:45:00,
2014-07-22 17:55:00,88.1,58.6,29.90,SSE,167,5.0,15.0,37,0.00,,,0.00,Wunderground v.1.15,2014-07-23 00:55:00,
2014-07-22 18:00:00,87.9,59.1,29.90,SSE,168,8.0,8.0,38,0.00,,,0.00,Wunderground v.1.15,2014-07-23 01:00:00,
2014-07-22 18:10:00,87.6,59.6,29.90,SSE,158,9.0,11.0,39,0.00,,,0.00,Wunderground v.1.15,2014-07-23 01:10:00,
2014-07-22 18:15:00,87.4,59.4,29.90,SSE,160,9.0,11.0,39,0.00,,,0.00,Wunderground v.1.15,2014-07-23 01:15:00,
2014-07-22 18:20:00,87.4,59.4,29.90,SSE,159,10.0,12.0,39,0.00,,,0.00,Wunderground v.1.15,2014-07-23 01:20:00,
2014-07-22 18:25:00,87.2,59.9,29.90,SSE,159,10.0,12.0,40,0.00,,,0.00,Wunderground v.1.15,2014-07-23 01:25:00,
2014-07-22 18:30:00,87.2,59.9,29.90,SSE,165,10.0,10.0,40,0.00,,,0.00,Wunderground v.1.15,2014-07-23 01:30:00,
2014-07-22 18:35:00,87.1,59.8,29.90,South,172,9.0,10.0,40,0.00,,,0.00,Wunderground v.1.15,2014-07-23 01:35:00,
2014-07-22 18:45:00,86.6,58.7,29.90,SSE,165,9.0,10.0,39,0.00,,,0.00,Wunderground v.1.15,2014-07-23 01:45:00,
2014-07-22 18:55:00,86.3,58.4,29.90,SSE,150,9.0,11.0,39,0.00,,,0.00,Wunderground v.1.15,2014-07-23 01:55:00,
2014-07-22 19:00:00,86.1,59.0,29.90,SSE,160,9.0,9.0,40,0.00,,,0.00,Wunderground v.1.15,2014-07-23 02:00:00,